Terminal Aerodrome Forecast
Issued by NWS

Home | Current Version | Previous Version | Text Only | Print | Product List | Glossary On
Versions: 1 2 3 4 5 6 7 8 9 10 11 12 13 14 15 16 17 18 19 20 21 22 23 24
000
FTUS45 KRIW 162323
TAFPNA
TAF
KPNA 162323Z 1700/1724 VRB06KT P6SM VCTS SCT070 BKN100CB
     FM170200 30007KT P6SM SCT070 BKN090
     FM170700 VRB04KT P6SM BKN090
     FM171800 29008G28KT P6SM VCTS SCT070CB SCT120
     AMD LTD TO CLD VIS AND WIND=

USA.gov is the U.S. government's official web portal to all federal, state and local government web resources and services.